Regional Weather Roundup
Issued by NWS Albany, NY

Home | Current Version | Previous Version | Text Only | Print | Product List | Glossary On
Versions: 1 2 3 4 5 6 7 8 9 10 11 12 13 14 15 16 17 18 19 20 21 22 23 24 25 26 27 28 29 30 31 32 33 34 35 36 37 38 39 40 41 42 43 44 45 46 47 48 49 50
000
ASUS41 KALY 281610
RWRALY

NEW YORK STATE HOURLY WEATHER ROUNDUP
NATIONAL WEATHER SERVICE ALBANY NY
1200 PM EDT THU MAY 28 2015

NOTE: "FAIR" INDICATES FEW OR NO CLOUDS BELOW 12,000 FEET WITH NO
SIGNIFICANT WEATHER AND/OR NO OBSTRUCTIONS TO VISIBILITY.

NYZ032-033-038>043-046>054-057>066-NYZ062>081-281700-
EAST


CITY           SKY/WX    TMP DP  RH WIND       PRES   REMARKS
ALBANY         PTSUNNY   79  66  64 SW6       30.09F
GLENS FALLS    CLOUDY    76  60  57 SW10      30.08S
POUGHKEEPSIE   SUNNY     83  67  58 SW10G20   30.12S
NEWBURGH         N/A     79  70  73 W14       30.15S
MONTGOMERY       N/A     83  69  62 MISG      30.12F
WHITE PLAINS   PTSUNNY   76  68  76 S7        30.16F HAZE
ISLIP          CLOUDY    69  62  78 SW9       30.17F
NEW YORK CITY  PTSUNNY   77  65  66 S8        30.16S
CENTRAL PARK   MOSUNNY   80  68  66 CALM      30.18F
$$

NYZ005>009-017-018-044>046-055-056-281700-
CENTRAL


CITY           SKY/WX    TMP DP  RH WIND       PRES   REMARKS
FULTON         PTSUNNY   63  53  70 W21G28    30.20R
SYRACUSE       PTSUNNY   69  55  60 W16       30.18R
ROME           CLOUDY    63  53  70 W18       30.19R
ELMIRA         MOSUNNY   75  55  49 NW15G22   30.20R
BINGHAMTON     MOSUNNY   73  57  57 W16G25    30.19R
MONTICELLO     MOSUNNY   75  64  69 W13       30.18F
$$

NYZ026>034-041>043-281700-
NORTH


CITY           SKY/WX    TMP DP  RH WIND       PRES   REMARKS
WATERTOWN      CLOUDY    59  53  80 SW8       30.16R
FORT DRUM      NOT AVBL
MASSENA        PTSUNNY   70  57  63 W13G20    30.07S
SARANAC LAKE   LGT RAIN  61  58  90 W14G21    30.10R
PLATTSBURGH    HVY RAIN  66  63  90 VRB7G16   30.05R FOG
$$

NYZ001>004-010>016-019>021-281700-
WEST


CITY           SKY/WX    TMP DP  RH WIND       PRES   REMARKS
NIAGARA FALLS  MOSUNNY   70  52  52 NW10      30.24R
BUFFALO        MOSUNNY   71  51  49 NW9G18    30.25R
DUNKIRK        SUNNY     68  54  60 N3        30.27R
JAMESTOWN      SUNNY     66  50  55 NW9       30.30R
WELLSVILLE     MOSUNNY   70  50  49 VRB7G17   30.29R
ROCHESTER      MOSUNNY   68  54  60 NW15      30.23R
PENN YAN       PTSUNNY   69  53  56 NW10G21   30.22S
$$

             KEY
       WCI = WIND CHILL INDEX
       VSB = VISIBILITY
       HX  = HEAT INDEX
$$


USA.gov is the U.S. government's official web portal to all federal, state and local government web resources and services.